This is the latest recevied weather packets stored in our database for station/object N2UFM. If no packets are shown the sender has not sent any weather packets the latest 1 day(s).
| Time | Temp. | Humidity | Pressure | Rain* | Wind** | Luminosity | Snow |
|---|---|---|---|---|---|---|---|
| 1778020450 | 27.78° C | 36% | 1009.3 hPa | 0 mm | 0.89 m/s, 284° | - | - |
| 1778020150 | 28.33° C | 34% | 1009.2 hPa | 0 mm | 1.34 m/s, 244° | - | - |
| 1778019850 | 28.33° C | 32% | 1009.1 hPa | 0 mm | 0.45 m/s, 245° | - | - |
| 1778019550 | 28.33° C | 31% | 1009.1 hPa | 0 mm | 1.34 m/s, 289° | - | - |
| 1778019250 | 28.33° C | 32% | 1009 hPa | 0 mm | 1.34 m/s, 244° | - | - |
| 1778018950 | 28.33° C | 35% | 1009.1 hPa | 0 mm | 1.34 m/s, 281° | - | - |
| 1778018649 | 28.33° C | 35% | 1008.9 hPa | 0 mm | 1.34 m/s, 213° | - | - |
| 1778018349 | 28.33° C | 35% | 1008.9 hPa | 0 mm | 3.13 m/s, 223° | - | - |
| 1778018049 | 28.33° C | 35% | 1008.9 hPa | 0 mm | 2.24 m/s, 231° | - | - |
| 1778017749 | 28.89° C | 35% | 1008.8 hPa | 0 mm | 2.24 m/s, 219° | - | - |
| 1778017449 | 28.89° C | 35% | 1008.8 hPa | 0 mm | 1.34 m/s, 263° | - | - |
| 1778017149 | 28.89° C | 34% | 1008.9 hPa | 0 mm | 2.24 m/s, 199° | - | - |
| 1778016849 | 28.89° C | 35% | 1008.8 hPa | 0 mm | 1.34 m/s, 243° | - | - |
| 1778016548 | 28.89° C | 36% | 1008.8 hPa | 0 mm | 1.34 m/s, 223° | - | - |
| 1778016248 | 28.89° C | 35% | 1008.9 hPa | 0 mm | 1.34 m/s, 275° | - | - |
| 1778015948 | 29.44° C | 35% | 1008.8 hPa | 0 mm | 3.13 m/s, 222° | - | - |
| 1778015648 | 29.44° C | 35% | 1008.8 hPa | 0 mm | 1.34 m/s, 239° | - | - |
| 1778015348 | 29.44° C | 34% | 1008.8 hPa | 0 mm | 1.34 m/s, 217° | - | - |
| 1778015048 | 29.44° C | 34% | 1008.6 hPa | 0 mm | 3.13 m/s, 250° | - | - |
| 1778014748 | 29.44° C | 34% | 1008.6 hPa | 0 mm | 2.68 m/s, 225° | - | - |
| 1778014447 | 29.44° C | 34% | 1008.5 hPa | 0 mm | 1.34 m/s, 262° | - | - |
| 1778014147 | 29.44° C | 34% | 1008.6 hPa | 0 mm | 2.68 m/s, 230° | - | - |
| 1778013847 | 29.44° C | 33% | 1008.6 hPa | 0 mm | 3.13 m/s, 274° | - | - |
| 1778013547 | 29.44° C | 33% | 1008.7 hPa | 0 mm | 2.68 m/s, 242° | - | - |
| 1778013247 | 30° C | 33% | 1008.8 hPa | 0 mm | 1.34 m/s, 235° | - | - |
* Rain latest hour (hover to see other rain measurements)
** Current wind speed in m/s (hover to see current wind gust speed)